Simultaneous Nadir Overpasses (SNOs) Predictions

Prediction of SNOs between LANDSAT-8 and NOAA-19 Satellite Orbit:

Table of predicted SNOs for the next 14.0 days since TLE Epoch: 2/9/2019
Index Date (LANDSAT-8) Time (LANDSAT-8) Lat,Lon (LANDSAT-8) SZA (LANDSAT-8 ) Date (NOAA-19) Time (NOAA-19) Lat,Lon (NOAA-19) SZA (NOAA-19 ) Distance(km) Time Diff (sec)
1 02/11/2019 09:36:04 78.46, 53.62 92.79 02/11/2019 09:36:01 78.45, 53.51 92.78 2.47 3
2 02/13/2019 15:09:49 -78.46, 150.16 87.97 02/13/2019 15:09:35 -78.48, 150.06 87.95 3.26 14
3 02/13/2019 15:59:15 78.45, -42.25 92.02 02/13/2019 16:00:28 78.38, -42.04 91.98 8.60 73
4 02/15/2019 20:43:32 78.47,-113.19 91.30 02/15/2019 20:42:59 78.48,-113.26 91.30 2.09 33
5 02/15/2019 21:33:00 -78.44, 54.30 88.75 02/15/2019 21:34:03 -78.43, 54.31 88.75 1.20 63
6 02/18/2019 02:17:17 -78.47, -16.62 89.48 02/18/2019 02:16:33 -78.50, -16.66 89.46 2.74 44
7 02/18/2019 03:06:43 78.46, 150.96 90.50 02/18/2019 03:07:27 78.45, 150.94 90.50 1.51 44
8 02/20/2019 07:51:00 78.49, 80.04 89.76 02/20/2019 07:49:56 78.48, 80.19 89.75 3.36 64
9 02/20/2019 08:40:28 -78.47,-112.45 90.29 02/20/2019 08:41:01 -78.46,-112.45 90.29 0.79 33
10 02/22/2019 13:24:45 -78.50, 176.65 91.03 02/22/2019 13:23:31 -78.53, 176.55 91.03 3.96 74




NCC Satellite Simultaneous Nadir Overpasses (SNOs) Prediction Service
